This demonstration page uses our WeatherBlox Daily Observations layout. Learn more.

Left ArrowRight Arrow

40.92501, -98.34201

Hourly Observations for August 10, 2022

Temp ( °F °C ) Dew Point ( °F °C ) Humidity (%) Winds ( mph kmh ) Pressure ( in mb ) Visibility ( mi km ) Precip ( " mm )
12:53 am 00:53 Clear 71 21.7 63 17.2 76 76 S 9 15 30.11 1020 10 16 0.00 0.00
1:53 am 01:53 Clear 70 21.1 63 17.2 78 78 S 8 13 30.10 1019 10 16 0.00 0.00
2:53 am 02:53 Clear 69 20.6 62 16.7 78 78 SSE 5 7 30.12 1020 10 16 0.00 0.00
6:53 am 06:53 Mostly Cloudy 64 17.8 60 15.6 87 87 Calm 30.16 1022 10 16 0.00 0.00
7:53 am 07:53 Mostly Cloudy 68 20 62 16.7 81 81 S 5 7 30.19 1022 10 16 0.00 0.00
8:53 am 08:53 Sunny 73 22.8 63 17.2 71 71 S 7 11 30.19 1022 10 16 0.00 0.00
9:53 am 09:53 Partly Cloudy 78 25.6 63 17.2 60 60 S 7 11 30.19 1022 10 16 0.00 0.00
10:53 am 10:53 Sunny 84 28.9 61 16.1 46 46 S 9 15 30.18 1022 10 16 0.00 0.00
11:53 am 11:53 Sunny 87 30.6 62 16.7 43 43 SSW 6 9 30.18 1022 10 16 0.00 0.00
12:53 pm 12:53 Sunny 89 31.7 62 16.7 41 41 S 9 15 30.17 1022 10 16 0.00 0.00
1:53 pm 13:53 Sunny 91 32.8 65 18.3 42 42 SSE 10 17 30.15 1021 10 16 0.00 0.00
2:53 pm 14:53 Sunny 93 33.9 64 17.8 39 39 SSE 13 20 30.14 1021 10 16 0.00 0.00
3:53 pm 15:53 Sunny 93 33.9 63 17.2 37 37 S 10 17 30.13 1020 10 16 0.00 0.00
4:53 pm 16:53 Sunny 94 34.4 62 16.7 35 35 S 14 22 30.12 1020 10 16 0.00 0.00
5:53 pm 17:53 Sunny 91 32.8 68 20 47 47 SSE 10 17 30.12 1020 10 16 0.00 0.00
6:53 pm 18:53 Sunny 89 31.7 69 20.6 52 52 SSE 9 15 30.10 1019 10 16 0.00 0.00
7:53 pm 19:53 Sunny 85 29.4 68 20 57 57 SSE 8 13 30.10 1019 10 16 0.00 0.00
8:53 pm 20:53 Clear 81 27.2 67 19.4 62 62 SSE 8 13 30.12 1020 10 16 0.00 0.00
9:53 pm 21:53 Clear 79 26.1 67 19.4 67 67 SSE 9 15 30.13 1020 10 16 0.00 0.00
10:53 pm 22:53 Clear 77 25 66 18.9 69 69 S 10 17 30.13 1020 10 16 0.00 0.00
11:53 pm 23:53 Clear 75 23.9 66 18.9 74 74 S 9 15 30.14 1021 10 16 0.00 0.00

Powered by AerisWeather